TUI2EM EDDM-LGRP

Flight info

Callsign TUI2EM
Flight time N/A
Altitude 35000
Route TURBU6E/08R TURBU Y107 TOBSO DCT BAKOR DCT MOBDO DCT PEVAL DCT UNIPA DCT BARIT DCT POD DCT ENFAR DCT TALAS UN130 MES UN139 LURUS UL995 USINI L995 CODIC
Aircraft B738/M-SDE2E3FGHIRWXY/LB1

Departure

Time N/A
Airport Munich Airport (EDDM)

Arrival

Time 2026-05-06 18:43
Airport Rhodes International Airport "Diagoras" (LGRP)
Time Latitude Longitude Altitude Speed Heading
2026-05-06 16:16 47.75187 11.94539 23120 ft 392 kts 185°
2026-05-06 16:16 47.72433 11.94481 23656 ft 395 kts 185°
2026-05-06 16:17 47.69678 11.94432 24203 ft 397 kts 185°
2026-05-06 16:17 47.66903 11.94388 24875 ft 396 kts 185°
2026-05-06 16:17 47.64128 11.94345 25347 ft 400 kts 186°
2026-05-06 16:17 47.61335 11.94298 25756 ft 404 kts 186°
2026-05-06 16:18 47.58540 11.94252 26121 ft 408 kts 186°
2026-05-06 16:18 47.55690 11.94205 26633 ft 409 kts 186°
2026-05-06 16:18 47.52838 11.94160 27190 ft 409 kts 185°
2026-05-06 16:18 47.50000 11.94346 27620 ft 420 kts 176°
2026-05-06 16:19 47.47169 11.95726 28110 ft 436 kts 161°
2026-05-06 16:19 47.44542 11.98098 28541 ft 450 kts 149°
2026-05-06 16:19 47.42185 12.01249 28953 ft 459 kts 144°
2026-05-06 16:19 47.39880 12.04585 29230 ft 467 kts 143°
2026-05-06 16:20 47.37601 12.07948 29658 ft 468 kts 143°
2026-05-06 16:20 47.35292 12.11362 30120 ft 467 kts 143°
2026-05-06 16:20 47.32988 12.14743 30628 ft 465 kts 143°
2026-05-06 16:20 47.30681 12.18093 31175 ft 463 kts 144°
2026-05-06 16:21 47.28417 12.21357 31764 ft 459 kts 144°
2026-05-06 16:21 47.26128 12.24635 32295 ft 457 kts 144°
2026-05-06 16:21 47.23849 12.27882 32774 ft 455 kts 144°
2026-05-06 16:21 47.21565 12.31125 33032 ft 456 kts 144°
2026-05-06 16:22 47.19270 12.34377 33191 ft 456 kts 144°
2026-05-06 16:22 47.17010 12.37577 33293 ft 456 kts 144°
2026-05-06 16:22 47.14716 12.40822 33691 ft 454 kts 144°
2026-05-06 16:22 47.12446 12.44037 34043 ft 453 kts 144°
2026-05-06 16:23 47.10174 12.47249 34413 ft 452 kts 144°
2026-05-06 16:23 47.07925 12.50422 34733 ft 453 kts 144°
2026-05-06 16:23 47.03343 12.56869 34797 ft 454 kts 143°
2026-05-06 16:24 46.98789 12.63272 34807 ft 451 kts 143°
2026-05-06 16:24 46.94295 12.69576 34823 ft 449 kts 144°
2026-05-06 16:25 46.89788 12.75879 34803 ft 446 kts 144°
2026-05-06 16:25 46.85254 12.82193 34855 ft 455 kts 143°
2026-05-06 16:26 46.80627 12.88618 34866 ft 458 kts 144°
2026-05-06 16:26 46.76035 12.94997 34866 ft 459 kts 143°
2026-05-06 16:27 46.71399 13.01422 34867 ft 457 kts 144°
2026-05-06 16:27 46.66788 13.07794 34861 ft 456 kts 143°
2026-05-06 16:28 46.62190 13.14124 34857 ft 458 kts 143°
2026-05-06 16:28 46.57567 13.20480 34865 ft 455 kts 143°
2026-05-06 16:29 46.53003 13.26738 34887 ft 454 kts 144°
2026-05-06 16:29 46.48377 13.33059 34918 ft 452 kts 144°
2026-05-06 16:30 46.44574 13.38246 34878 ft 456 kts 144°
2026-05-06 16:30 46.39146 13.45631 34905 ft 458 kts 143°
2026-05-06 16:31 46.34524 13.51909 34898 ft 457 kts 144°
2026-05-06 16:31 46.29871 13.58211 34891 ft 457 kts 144°
2026-05-06 16:32 46.25250 13.64455 34907 ft 457 kts 144°
2026-05-06 16:32 46.20590 13.70732 34913 ft 458 kts 143°
2026-05-06 16:33 46.15918 13.77013 34907 ft 459 kts 143°
2026-05-06 16:34 46.08892 13.86430 34910 ft 460 kts 143°
2026-05-06 16:34 46.04217 13.92677 34935 ft 460 kts 143°
2026-05-06 16:35 45.99508 13.98953 34886 ft 460 kts 143°
2026-05-06 16:35 45.94840 14.05161 34928 ft 458 kts 143°
2026-05-06 16:36 45.90158 14.11373 34934 ft 458 kts 143°
2026-05-06 16:36 45.85495 14.17544 34943 ft 457 kts 143°
2026-05-06 16:37 45.81574 14.22721 34952 ft 457 kts 143°
2026-05-06 16:37 45.76894 14.28885 34928 ft 457 kts 143°
2026-05-06 16:38 45.72240 14.35003 34945 ft 457 kts 143°
2026-05-06 16:38 45.67529 14.41179 34943 ft 459 kts 143°
2026-05-06 16:39 45.62838 14.47314 34939 ft 460 kts 143°
2026-05-06 16:39 45.58081 14.53523 34941 ft 461 kts 143°
2026-05-06 16:40 45.53354 14.59678 34934 ft 463 kts 143°
2026-05-06 16:40 45.48593 14.65862 34936 ft 463 kts 143°
2026-05-06 16:41 45.43840 14.72021 34944 ft 464 kts 143°
2026-05-06 16:41 45.39046 14.78215 34931 ft 465 kts 142°
2026-05-06 16:42 45.34262 14.84386 34950 ft 466 kts 142°
2026-05-06 16:42 45.29435 14.90596 34935 ft 467 kts 143°
2026-05-06 16:43 45.24613 14.96786 34933 ft 466 kts 143°
2026-05-06 16:43 45.19819 15.02925 34935 ft 465 kts 143°
2026-05-06 16:44 45.14996 15.09085 34917 ft 465 kts 143°
2026-05-06 16:44 45.10199 15.15198 34933 ft 466 kts 143°
2026-05-06 16:45 45.05387 15.21314 34938 ft 466 kts 143°
2026-05-06 16:45 45.00549 15.27449 34932 ft 466 kts 143°
2026-05-06 16:46 44.95710 15.33573 34947 ft 466 kts 143°
2026-05-06 16:46 44.90893 15.39654 34939 ft 466 kts 143°
2026-05-06 16:47 44.86074 15.45722 34943 ft 466 kts 143°
2026-05-06 16:47 44.81221 15.51820 34954 ft 466 kts 143°
2026-05-06 16:48 44.76368 15.57903 34960 ft 467 kts 143°
2026-05-06 16:48 44.71506 15.63983 34959 ft 466 kts 143°
2026-05-06 16:49 44.66676 15.70008 34953 ft 466 kts 144°
2026-05-06 16:49 44.61813 15.76063 34964 ft 466 kts 144°
2026-05-06 16:50 44.56976 15.82067 34976 ft 468 kts 144°
2026-05-06 16:50 44.52090 15.88120 34974 ft 468 kts 144°
2026-05-06 16:51 44.47181 15.94188 34982 ft 469 kts 144°
2026-05-06 16:51 44.42315 16.00190 34972 ft 469 kts 146°
2026-05-06 16:52 44.37391 16.06249 34966 ft 469 kts 146°
2026-05-06 16:52 44.32511 16.12240 34972 ft 469 kts 146°
2026-05-06 16:53 44.27596 16.18258 34984 ft 470 kts 146°
2026-05-06 16:53 44.22698 16.24242 34986 ft 471 kts 146°
2026-05-06 16:54 44.17743 16.30282 34988 ft 472 kts 146°
2026-05-06 16:54 44.12807 16.36287 34988 ft 473 kts 146°
2026-05-06 16:55 44.07824 16.42337 34999 ft 474 kts 146°
2026-05-06 16:55 44.02900 16.48411 35004 ft 479 kts 141°
2026-05-06 16:56 43.98659 16.55718 35011 ft 487 kts 133°
2026-05-06 16:56 43.94636 16.63240 35018 ft 486 kts 132°
2026-05-06 16:57 43.90572 16.70752 35017 ft 485 kts 133°
2026-05-06 16:57 43.86507 16.78155 35001 ft 483 kts 133°
2026-05-06 16:58 43.82406 16.85568 35031 ft 483 kts 133°
2026-05-06 16:58 43.78338 16.92903 35015 ft 483 kts 133°
2026-05-06 16:59 43.74227 17.00302 35021 ft 483 kts 133°
2026-05-06 16:59 43.70114 17.07689 35011 ft 484 kts 133°
2026-05-06 17:00 43.66021 17.15020 35019 ft 485 kts 133°
2026-05-06 17:00 43.61902 17.22380 35030 ft 486 kts 133°
2026-05-06 17:01 43.57751 17.29778 35025 ft 487 kts 133°
2026-05-06 17:01 43.53582 17.37190 35021 ft 488 kts 133°
2026-05-06 17:02 43.49430 17.44554 35022 ft 489 kts 133°
2026-05-06 17:02 43.45245 17.51958 35028 ft 490 kts 133°
2026-05-06 17:03 43.41049 17.59363 35028 ft 490 kts 133°
2026-05-06 17:03 43.36864 17.66729 35017 ft 490 kts 133°
2026-05-06 17:04 43.32649 17.74132 35033 ft 491 kts 133°
2026-05-06 17:04 43.28431 17.81523 35036 ft 491 kts 132°
2026-05-06 17:05 43.24214 17.88820 35047 ft 489 kts 134°
2026-05-06 17:05 43.19827 17.95977 35054 ft 489 kts 135°
2026-05-06 17:06 43.15434 18.03040 35038 ft 489 kts 134°
2026-05-06 17:06 43.11037 18.10148 35037 ft 489 kts 134°
2026-05-06 17:07 43.06655 18.17252 35031 ft 488 kts 134°
2026-05-06 17:07 43.02263 18.24364 35036 ft 486 kts 134°
2026-05-06 17:08 42.97909 18.31393 35041 ft 486 kts 134°
2026-05-06 17:08 42.93534 18.38440 35034 ft 486 kts 134°
2026-05-06 17:09 42.89146 18.45488 35034 ft 486 kts 134°
2026-05-06 17:09 42.84764 18.52510 35047 ft 485 kts 134°
2026-05-06 17:10 42.80410 18.59472 35051 ft 485 kts 134°
2026-05-06 17:10 42.76021 18.66472 35055 ft 485 kts 134°
2026-05-06 17:11 42.71627 18.73464 35063 ft 484 kts 134°
2026-05-06 17:11 42.67273 18.80376 35071 ft 484 kts 134°
2026-05-06 17:12 42.62902 18.87297 35056 ft 484 kts 134°
2026-05-06 17:12 42.58511 18.94236 35067 ft 484 kts 134°
2026-05-06 17:13 42.54106 19.01179 35076 ft 484 kts 134°
2026-05-06 17:13 42.49723 19.08073 35052 ft 485 kts 134°
2026-05-06 17:14 42.45320 19.14983 35080 ft 483 kts 134°
2026-05-06 17:14 42.40947 19.21831 35083 ft 483 kts 134°
2026-05-06 17:15 42.36758 19.28985 35071 ft 487 kts 126°
2026-05-06 17:15 42.33109 19.36760 35077 ft 489 kts 124°
2026-05-06 17:16 42.29537 19.44523 35079 ft 490 kts 124°
2026-05-06 17:16 42.25872 19.52326 35069 ft 491 kts 125°
2026-05-06 17:17 42.22167 19.60101 35070 ft 492 kts 125°
2026-05-06 17:17 42.18476 19.67806 35076 ft 491 kts 125°
2026-05-06 17:18 42.14760 19.75549 35074 ft 491 kts 125°
2026-05-06 17:18 42.11044 19.83277 35064 ft 491 kts 125°
2026-05-06 17:19 42.07324 19.90996 35070 ft 490 kts 125°
2026-05-06 17:19 42.03620 19.98662 35059 ft 490 kts 125°
2026-05-06 17:20 41.99891 20.06359 35072 ft 489 kts 125°
2026-05-06 17:20 41.96168 20.14025 35075 ft 490 kts 125°
2026-05-06 17:21 41.92441 20.21680 35066 ft 491 kts 125°
2026-05-06 17:21 41.88688 20.29369 35057 ft 492 kts 125°
2026-05-06 17:22 41.84955 20.36998 35073 ft 491 kts 125°
2026-05-06 17:22 41.81824 20.43382 35065 ft 492 kts 125°
2026-05-06 17:23 41.77428 20.52326 35063 ft 493 kts 125°
2026-05-06 17:23 41.74282 20.58724 35054 ft 493 kts 125°
2026-05-06 17:24 41.70502 20.66430 35054 ft 494 kts 125°
2026-05-06 17:24 41.66718 20.74130 35044 ft 495 kts 125°
2026-05-06 17:25 41.62949 20.81776 35040 ft 495 kts 125°
2026-05-06 17:25 41.59154 20.89453 35053 ft 494 kts 125°
2026-05-06 17:26 41.55358 20.97094 35035 ft 495 kts 125°
2026-05-06 17:26 41.51540 21.04770 35044 ft 495 kts 125°
2026-05-06 17:27 41.47728 21.12426 35024 ft 495 kts 125°
2026-05-06 17:27 41.43930 21.20034 35016 ft 495 kts 125°
2026-05-06 17:28 41.40111 21.27665 35005 ft 494 kts 125°
2026-05-06 17:28 41.36284 21.35293 35022 ft 493 kts 125°
2026-05-06 17:29 41.32483 21.42851 35020 ft 493 kts 125°
2026-05-06 17:29 41.28672 21.50409 35023 ft 492 kts 125°
2026-05-06 17:30 41.24864 21.57943 35019 ft 493 kts 125°
2026-05-06 17:30 41.21033 21.65505 35015 ft 493 kts 125°
2026-05-06 17:31 41.17194 21.73065 35024 ft 493 kts 125°
2026-05-06 17:31 41.13369 21.80581 35038 ft 493 kts 125°
2026-05-06 17:32 41.09514 21.88142 35011 ft 494 kts 125°
2026-05-06 17:32 41.05630 21.95581 35015 ft 493 kts 127°
2026-05-06 17:33 41.01470 22.02797 35025 ft 491 kts 129°
2026-05-06 17:33 40.97288 22.09962 35031 ft 490 kts 128°
2026-05-06 17:34 40.93169 22.17116 35036 ft 490 kts 128°
2026-05-06 17:34 40.89051 22.24304 35024 ft 489 kts 128°
2026-05-06 17:35 40.85417 22.30635 35025 ft 489 kts 128°
2026-05-06 17:35 40.81313 22.37765 35019 ft 488 kts 128°
2026-05-06 17:36 40.75154 22.48428 35013 ft 487 kts 128°
2026-05-06 17:36 40.71041 22.55539 35013 ft 486 kts 128°
2026-05-06 17:37 40.66954 22.62601 35018 ft 486 kts 128°
2026-05-06 17:37 40.62847 22.69683 35022 ft 486 kts 128°
2026-05-06 17:38 40.58737 22.76755 35021 ft 486 kts 128°
2026-05-06 17:38 40.54618 22.83829 35021 ft 486 kts 128°
2026-05-06 17:39 40.50525 22.90844 35029 ft 487 kts 128°
2026-05-06 17:39 40.46262 22.97757 35009 ft 487 kts 136°
2026-05-06 17:40 40.41039 23.03405 35021 ft 486 kts 143°
2026-05-06 17:40 40.35725 23.08840 35023 ft 487 kts 143°
2026-05-06 17:41 40.30391 23.14363 35023 ft 487 kts 142°
2026-05-06 17:41 40.25113 23.19890 35035 ft 488 kts 142°
2026-05-06 17:42 40.19798 23.25468 35030 ft 488 kts 142°
2026-05-06 17:42 40.14485 23.31033 35034 ft 488 kts 142°
2026-05-06 17:43 40.09199 23.36555 35038 ft 488 kts 142°
2026-05-06 17:43 40.03879 23.42098 35042 ft 488 kts 142°
2026-05-06 17:44 39.98591 23.47597 35041 ft 488 kts 142°
2026-05-06 17:44 39.93260 23.53129 35024 ft 488 kts 142°
2026-05-06 17:45 39.87957 23.58622 35042 ft 488 kts 142°
2026-05-06 17:45 39.82656 23.64101 35045 ft 487 kts 142°
2026-05-06 17:46 39.77333 23.69591 35039 ft 487 kts 142°
2026-05-06 17:46 39.71999 23.75081 35053 ft 487 kts 142°
2026-05-06 17:47 39.66720 23.80505 35033 ft 487 kts 143°
2026-05-06 17:47 39.61387 23.85972 35040 ft 487 kts 143°
2026-05-06 17:48 39.56049 23.91433 35045 ft 488 kts 143°
2026-05-06 17:48 39.50746 23.96848 35044 ft 488 kts 143°
2026-05-06 17:49 39.45400 24.02296 35044 ft 489 kts 143°
2026-05-06 17:49 39.40043 24.07744 35040 ft 489 kts 143°
2026-05-06 17:50 39.34706 24.13161 35041 ft 490 kts 143°
2026-05-06 17:50 39.29334 24.18602 35047 ft 491 kts 143°
2026-05-06 17:51 39.23968 24.24026 35047 ft 491 kts 143°
2026-05-06 17:51 39.18563 24.29479 35046 ft 492 kts 143°
2026-05-06 17:52 39.13156 24.34924 35043 ft 492 kts 143°
2026-05-06 17:52 39.07785 24.40320 35052 ft 493 kts 143°
2026-05-06 17:53 39.02362 24.45759 35049 ft 493 kts 143°
2026-05-06 17:53 38.96940 24.51185 35050 ft 493 kts 143°
2026-05-06 17:54 38.91541 24.56578 35056 ft 494 kts 143°
2026-05-06 17:54 38.86108 24.61994 35050 ft 494 kts 143°
2026-05-06 17:55 38.80667 24.67407 35059 ft 494 kts 143°
2026-05-06 17:55 38.75238 24.72796 35062 ft 493 kts 143°
2026-05-06 17:56 38.69822 24.78164 35061 ft 493 kts 143°
2026-05-06 17:56 38.64387 24.83540 35065 ft 493 kts 143°
2026-05-06 17:57 38.58982 24.88876 35048 ft 493 kts 144°
2026-05-06 17:57 38.53542 24.94235 35058 ft 492 kts 144°
2026-05-06 17:58 38.48104 24.99582 35061 ft 492 kts 144°
2026-05-06 17:58 38.42693 25.04891 35063 ft 493 kts 144°
2026-05-06 17:59 38.37281 25.10192 35065 ft 493 kts 144°
2026-05-06 17:59 38.31819 25.15530 35050 ft 493 kts 144°
2026-05-06 18:00 38.26380 25.20836 35063 ft 494 kts 144°
2026-05-06 18:00 38.20905 25.26168 35067 ft 494 kts 144°
2026-05-06 18:01 38.15462 25.31457 35070 ft 495 kts 144°
2026-05-06 18:01 38.09976 25.36778 35069 ft 496 kts 144°
2026-05-06 18:02 38.04496 25.42083 35063 ft 496 kts 144°
2026-05-06 18:02 37.98994 25.47399 35065 ft 496 kts 144°
2026-05-06 18:03 37.93516 25.52682 35075 ft 497 kts 144°
2026-05-06 18:03 37.88001 25.57990 35074 ft 497 kts 144°
2026-05-06 18:04 37.82519 25.63256 35071 ft 497 kts 144°
2026-05-06 18:04 37.76995 25.68552 35074 ft 497 kts 144°
2026-05-06 18:05 37.71477 25.73833 35074 ft 498 kts 144°
2026-05-06 18:05 37.65974 25.79089 35074 ft 498 kts 144°
2026-05-06 18:06 37.60437 25.84368 35078 ft 498 kts 144°
2026-05-06 18:06 37.54909 25.89628 35080 ft 498 kts 144°
2026-05-06 18:07 37.49398 25.94861 35069 ft 498 kts 144°
2026-05-06 18:07 37.43855 26.00116 35080 ft 498 kts 144°
2026-05-06 18:08 37.39245 26.04478 35080 ft 498 kts 144°
2026-05-06 18:08 37.33695 26.09721 35083 ft 498 kts 144°
2026-05-06 18:09 37.28180 26.14921 35085 ft 498 kts 144°
2026-05-06 18:09 37.22617 26.20157 35084 ft 499 kts 144°
2026-05-06 18:10 37.17058 26.25379 35082 ft 498 kts 144°
2026-05-06 18:10 37.11529 26.30565 35088 ft 499 kts 144°
2026-05-06 18:11 37.05950 26.35788 35086 ft 499 kts 144°
2026-05-06 18:11 37.00380 26.40995 35085 ft 499 kts 144°
2026-05-06 18:12 36.94844 26.46161 35088 ft 499 kts 144°
2026-05-06 18:12 36.89708 26.51987 35091 ft 500 kts 129°
2026-05-06 18:13 36.86096 26.59370 35092 ft 497 kts 111°
2026-05-06 18:13 36.83521 26.67345 35088 ft 497 kts 111°
2026-05-06 18:14 36.80809 26.75324 35083 ft 498 kts 111°
2026-05-06 18:14 36.78076 26.83209 35083 ft 498 kts 111°
2026-05-06 18:15 36.75331 26.91141 35080 ft 498 kts 111°
2026-05-06 18:15 36.72588 26.99082 35078 ft 499 kts 111°
2026-05-06 18:16 36.69839 27.07027 35076 ft 499 kts 111°
2026-05-06 18:16 36.67073 27.14985 35077 ft 499 kts 112°
2026-05-06 18:17 36.64309 27.22875 35083 ft 500 kts 112°
2026-05-06 18:17 36.61519 27.30822 35079 ft 500 kts 112°
2026-05-06 18:18 36.58721 27.38786 35077 ft 501 kts 112°
2026-05-06 18:18 36.55958 27.46637 35077 ft 501 kts 112°
2026-05-06 18:19 36.53195 27.54468 35070 ft 501 kts 112°
2026-05-06 18:19 36.50395 27.62386 34928 ft 502 kts 112°
2026-05-06 18:20 36.48993 27.66345 34493 ft 495 kts 112°
2026-05-06 18:20 36.47610 27.70237 34076 ft 486 kts 112°
2026-05-06 18:20 36.46370 27.74040 33400 ft 477 kts 103°
2026-05-06 18:20 36.45739 27.78051 32758 ft 467 kts 94°
2026-05-06 18:21 36.45310 27.82034 32116 ft 462 kts 94°
2026-05-06 18:21 36.44841 27.85962 31483 ft 458 kts 95°
2026-05-06 18:21 36.44300 27.89851 30862 ft 455 kts 100°
2026-05-06 18:21 36.43140 27.93529 30223 ft 458 kts 120°
2026-05-06 18:22 36.41303 27.96680 29606 ft 455 kts 128°
2026-05-06 18:22 36.39327 27.99728 28913 ft 450 kts 128°
2026-05-06 18:22 36.37377 28.02747 28254 ft 446 kts 127°
2026-05-06 18:22 36.35421 28.05736 27586 ft 442 kts 134°
2026-05-06 18:23 36.32942 28.07942 26939 ft 437 kts 158°
2026-05-06 18:23 36.30165 28.09276 26337 ft 431 kts 157°
2026-05-06 18:23 36.27612 28.11224 25717 ft 430 kts 141°
2026-05-06 18:23 36.25535 28.13875 25136 ft 425 kts 126°
2026-05-06 18:24 36.23983 28.16949 24551 ft 418 kts 113°
2026-05-06 18:24 36.22993 28.20257 23989 ft 410 kts 101°
2026-05-06 18:24 36.22472 28.23695 23380 ft 401 kts 91°
2026-05-06 18:24 36.22446 28.27107 22720 ft 393 kts 82°
2026-05-06 18:25 36.22592 28.30474 22062 ft 389 kts 82°
2026-05-06 18:25 36.22752 28.33772 21428 ft 386 kts 82°
2026-05-06 18:25 36.22904 28.37081 20812 ft 382 kts 82°
2026-05-06 18:25 36.23041 28.40357 20197 ft 379 kts 83°
2026-05-06 18:26 36.23167 28.43608 19602 ft 376 kts 83°
2026-05-06 18:26 36.23284 28.46812 19022 ft 373 kts 83°
2026-05-06 18:26 36.23675 28.49951 18405 ft 362 kts 64°
2026-05-06 18:26 36.25020 28.52473 17760 ft 344 kts 37°
2026-05-06 18:27 36.27041 28.53894 17109 ft 329 kts 11°
2026-05-06 18:27 36.29266 28.53964 16477 ft 318 kts 346°
2026-05-06 18:27 36.31406 28.53460 15869 ft 317 kts 357°
2026-05-06 18:27 36.33599 28.53778 15275 ft 318 kts
2026-05-06 18:28 36.35766 28.54355 14673 ft 316 kts 10°
2026-05-06 18:28 36.37910 28.54966 14077 ft 315 kts 11°
2026-05-06 18:28 36.39899 28.56037 13438 ft 319 kts 30°
2026-05-06 18:28 36.41603 28.57815 12818 ft 321 kts 42°
2026-05-06 18:29 36.43113 28.59849 12181 ft 319 kts 45°
2026-05-06 18:29 36.44589 28.61910 11558 ft 318 kts 45°
2026-05-06 18:29 36.46054 28.63968 10942 ft 316 kts 45°
2026-05-06 18:29 36.47505 28.66002 10343 ft 313 kts 46°
2026-05-06 18:30 36.48934 28.67986 9757 ft 311 kts 46°
2026-05-06 18:30 36.50384 28.69973 9095 ft 308 kts 45°
2026-05-06 18:30 36.51823 28.71937 8446 ft 306 kts 46°
2026-05-06 18:30 36.53263 28.73893 7816 ft 303 kts 45°
2026-05-06 18:31 36.54699 28.75801 7209 ft 300 kts 41°
2026-05-06 18:31 36.56477 28.77000 6607 ft 296 kts 11°
2026-05-06 18:31 36.58495 28.76843 6074 ft 291 kts 341°
2026-05-06 18:31 36.60240 28.75665 5701 ft 283 kts 324°
2026-05-06 18:32 36.61593 28.73944 5380 ft 276 kts 307°
2026-05-06 18:32 36.62403 28.71816 5101 ft 271 kts 287°
2026-05-06 18:32 36.62618 28.69490 4836 ft 270 kts 270°
2026-05-06 18:32 36.62235 28.67244 4586 ft 262 kts 249°
2026-05-06 18:33 36.61455 28.65244 4308 ft 251 kts 245°
2026-05-06 18:33 36.60664 28.63352 4060 ft 241 kts 244°
2026-05-06 18:33 36.59909 28.61568 3825 ft 231 kts 244°
2026-05-06 18:33 36.59171 28.59824 3582 ft 223 kts 244°
2026-05-06 18:34 36.58457 28.58135 3360 ft 216 kts 244°
2026-05-06 18:34 36.57771 28.56508 3124 ft 213 kts 245°
2026-05-06 18:34 36.57083 28.54873 2921 ft 211 kts 245°
2026-05-06 18:34 36.56403 28.53257 2701 ft 211 kts 245°
2026-05-06 18:35 36.55721 28.51637 2507 ft 209 kts 245°
2026-05-06 18:35 36.55055 28.50053 2332 ft 209 kts 245°
2026-05-06 18:35 36.54379 28.48445 2149 ft 208 kts 245°
2026-05-06 18:35 36.53705 28.46844 2055 ft 209 kts 244°
2026-05-06 18:36 36.53031 28.45242 2016 ft 207 kts 245°
2026-05-06 18:36 36.52364 28.43660 2021 ft 207 kts 245°
2026-05-06 18:36 36.51698 28.42081 2013 ft 209 kts 244°
2026-05-06 18:36 36.51022 28.40477 1999 ft 208 kts 244°
2026-05-06 18:37 36.50351 28.38887 2002 ft 208 kts 244°
2026-05-06 18:37 36.49906 28.37830 2003 ft 207 kts 244°
2026-05-06 18:37 36.49020 28.35732 2016 ft 206 kts 246°
2026-05-06 18:37 36.48353 28.34152 2019 ft 206 kts 246°
2026-05-06 18:38 36.47785 28.32526 2011 ft 203 kts 253°
2026-05-06 18:38 36.47211 28.30947 1996 ft 194 kts 249°
2026-05-06 18:38 36.46673 28.29453 1991 ft 185 kts 252°
2026-05-06 18:38 36.46218 28.28003 1985 ft 174 kts 254°
2026-05-06 18:39 36.45820 28.26673 1990 ft 159 kts 255°
2026-05-06 18:39 36.45446 28.25400 1991 ft 153 kts 255°
2026-05-06 18:39 36.45092 28.24194 2015 ft 146 kts 256°
2026-05-06 18:40 36.44424 28.21912 1842 ft 133 kts 256°
2026-05-06 18:40 36.44105 28.20803 1355 ft 140 kts 255°
2026-05-06 18:40 36.43768 28.19701 1126 ft 130 kts 255°
2026-05-06 18:40 36.43477 28.18672 953 ft 123 kts 254°
2026-05-06 18:41 36.43185 28.17689 856 ft 121 kts 252°
2026-05-06 18:41 36.42890 28.16722 828 ft 118 kts 258°
2026-05-06 18:41 36.42652 28.15740 739 ft 122 kts 250°
2026-05-06 18:41 36.42350 28.14769 566 ft 118 kts 250°
2026-05-06 18:42 36.42049 28.13802 469 ft 122 kts 250°
2026-05-06 18:42 36.41765 28.12811 343 ft 118 kts 250°
2026-05-06 18:42 36.41488 28.11870 246 ft 117 kts 247°
2026-05-06 18:42 36.41199 28.10908 122 ft 119 kts 246°
2026-05-06 18:43 36.40913 28.09942 31 ft 115 kts 247°
2026-05-06 18:43 36.40681 28.09118 28 ft 86 kts 250°
2026-05-06 18:43 36.40515 28.08560 24 ft 52 kts 250°
2026-05-06 18:43 36.40433 28.08281 25 ft 17 kts 251°
2026-05-06 18:44 36.40403 28.08173 26 ft 16 kts 251°
2026-05-06 18:44 36.40355 28.08045 30 ft 14 kts 232°
2026-05-06 18:44 36.40283 28.07959 27 ft 15 kts 220°
2026-05-06 18:44 36.40218 28.07890 25 ft 9 kts 221°
2026-05-06 18:45 36.40165 28.07862 28 ft 9 kts 166°
2026-05-06 18:45 36.40151 28.07928 28 ft 9 kts 75°
2026-05-06 18:45 36.40176 28.08025 26 ft 15 kts 71°
2026-05-06 18:45 36.40204 28.08125 28 ft 21 kts 70°
2026-05-06 18:46 36.40271 28.08342 27 ft 17 kts 71°
2026-05-06 18:46 36.40308 28.08478 27 ft 16 kts 71°
2026-05-06 18:46 36.40350 28.08605 27 ft 16 kts 69°
2026-05-06 18:46 36.40384 28.08722 28 ft 13 kts 71°
2026-05-06 18:47 36.40402 28.08805 28 ft 9 kts 83°
2026-05-06 18:47 36.40398 28.08888 28 ft 10 kts 95°
2026-05-06 18:47 36.40396 28.08955 28 ft 5 kts 88°
2026-05-06 18:47 36.40388 28.08996 28 ft 6 kts 131°
2026-05-06 18:48 36.40364 28.09012 28 ft 4 kts 155°
2026-05-06 18:48 36.40336 28.09025 28 ft 2 kts 159°
2026-05-06 18:48 36.40335 28.09026 28 ft 0 kts 160°